Wind_Speed
14 16 15 13 10 8 9 10 10 11 11 11 11 10 9 10 9 7 5 3 2 2 0 4 2 3 2 1 1 3 3 4 1 2 3 4 7 3 4 4 6 11 7 20 28 32 30
19 16 14 12 9 8 11 12 12 11 12 12 11 10 10 10 9 7 5 3 2 2 5 5 2 4 2 2 2 5 5 4 4 3 3 4 4 4 4 4 3 9 17 17 20 22 23
11 13 12 11 8 8 9 13 12 11 12 13 13 11 10 10 10 8 6 4 4 5 7 5 1 5 2 1 4 7 6 5 7 5 1 4 5 2 5 5 8 17 13 8 6 6 3
9 10 11 10 8 6 11 13 13 13 14 13 12 12 12 11 10 9 6 5 7 8 6 3 3 5 2 4 4 6 9 2 5 5 5 4 4 4 3 12 6 6 5 5 5 14 11
9 7 11 11 11 8 9 12 15 14 15 14 12 12 12 10 9 8 6 5 7 9 7 4 3 5 2 4 5 8 10 7 5 6 3 3 5 4 5 5 5 6 5 8 4 19 3
12 10 10 11 10 10 10 11 14 16 17 14 13 12 11 10 8 6 4 3 4 9 7 6 6 3 1 3 5 8 6 8 5 5 6 5 6 4 4 4 5 5 7 6 6 3 18
12 12 11 13 11 13 13 15 13 14 16 18 15 12 11 9 6 3 1 5 4 2 8 5 2 2 1 3 7 5 7 7 4 4 4 7 8 5 3 3 6 8 8 11 1 6 9
10 14 12 9 12 14 16 15 13 13 17 18 16 12 10 6 4 3 6 6 7 5 7 13 11 8 3 3 3 4 7 4 4 4 2 7 6 2 6 7 14 11 12 7 6 3 6
16 14 16 14 13 14 14 15 13 16 17 18 16 12 9 4 3 6 8 6 3 7 3 7 13 10 6 5 1 4 5 4 5 4 4 6 2 7 8 7 8 4 7 3 7 6 8
19 16 15 14 17 14 14 16 16 16 15 18 16 11 8 2 6 9 7 4 2 2 4 5 5 6 9 7 0 1 2 2 4 6 6 7 3 7 9 7 5 5 3 6 7 3 4
18 17 15 15 18 18 15 16 15 12 13 16 16 13 6 3 4 9 6 4 2 2 4 1 3 7 11 5 8 2 4 2 5 4 5 4 4 5 6 3 3 4 2 4 4 5 5
19 19 19 15 13 19 19 15 15 13 13 14 15 13 7 6 6 7 8 5 5 6 5 3 5 5 5 3 4 6 3 5 6 6 7 4 4 3 3 3 3 5 5 7 5 3 2
14 15 18 21 21 11 7 16 15 14 12 11 12 12 9 9 8 8 7 7 5 4 4 4 4 5 3 4 3 3 5 3 5 5 2 4 3 2 4 5 4 7 5 3 3 3 4
16 16 15 18 18 24 15 9 15 16 14 11 12 12 12 12 10 9 8 4 4 4 5 2 4 6 5 5 3 3 5 5 2 5 4 5 1 2 1 4 5 3 5 4 5 3 2
17 16 15 13 16 17 20 19 14 14 13 13 14 14 15 9 14 11 8 3 8 6 3 5 4 4 4 4 4 3 5 7 5 4 6 4 2 1 3 2 4 3 1 2 5 3 3
14 16 17 15 13 12 17 18 18 13 13 12 13 14 15 9 16 11 3 6 4 4 4 0 7 5 7 7 5 4 7 4 6 3 5 6 4 1 1 4 7 3 4 3 3 4 3
15 15 16 16 15 14 13 15 17 12 12 10 9 6 2 16 17 10 4 6 4 9 7 2 2 6 6 7 7 4 8 1 3 5 4 5 4 2 4 3 7 2 1 4 3 3 4
17 17 14 14 15 14 15 14 15 12 11 12 6 1 3 21 6 1 3 5 2 3 4 4 3 3 8 9 5 6 8 4 11 12 8 3 5 3 4 4 6 5 6 5 4 5 1
20 19 17 15 14 13 14 12 12 15 10 8 6 5 3 26 3 2 4 4 3 2 2 3 2 1 0 7 4 3 5 3 13 5 8 7 1 4 5 6 4 4 5 5 5 3 5
20 20 18 16 13 14 15 11 11 13 11 9 8 1 6 14 4 7 4 4 4 5 4 4 3 4 2 2 6 5 3 3 2 5 7 4 3 6 7 5 5 5 7 8 6 3 4
19 19 17 16 16 13 14 13 11 12 11 8 9 5 6 4 7 4 5 3 8 6 7 5 2 5 2 1 3 4 3 3 5 7 3 4 4 3 2 3 4 5 11 12 7 5 5
19 18 19 17 16 15 12 14 12 11 12 10 3 3 4 3 9 17 10 6 6 10 5 6 5 3 1 3 4 8 7 4 5 2 3 3 2 3 2 1 2 2 8 13 13 6 7
18 17 18 17 16 16 14 12 13 13 14 5 5 13 5 9 6 9 9 14 8 6 6 12 6 1 1 5 11 10 17 12 13 10 5 6 5 3 3 0 4 7 14 17 11 7 12
18 17 16 17 16 16 18 13 14 13 16 14 11 10 5 2 7 8 9 17 12 10 11 3 20 7 3 1 12 13 13 13 9 5 8 7 6 3 3 1 1 7 2 11 19 10 15
19 18 17 17 16 17 17 19 15 15 15 17 17 12 3 3 6 10 10 8 16 20 14 13 14 4 7 12 4 5 5 5 5 2 4 4 5 2 5 3 6 5 6 8 11 14 17
20 19 18 19 19 17 18 18 20 17 15 17 18 20 8 2 3 7 9 19 8 4 2 11 28 19 7 3 3 6 5 6 4 4 5 5 6 4 3 5 8 5 2 11 7 6 17
20 20 20 19 20 19 19 19 21 22 18 18 20 19 9 6 12 8 4 3 9 9 2 4 5 12 17 2 3 3 4 5 6 10 6 4 3 6 3 3 8 8 6 12 6 7 8
21 20 20 21 21 22 21 20 20 23 23 21 21 21 18 5 14 11 8 8 7 1 3 5 2 5 3 4 4 4 3 6 5 6 7 8 7 4 3 2 8 9 4 8 6 3 14
22 22 22 22 22 22 21 21 21 23 24 24 24 22 18 17 9 12 13 16 21 21 8 5 3 1 10 3 0 3 2 2 6 4 3 3 7 6 8 7 6 3 11 8 8 4 12
Wind_Direction
306 313 322 328 325 327 332 335 329 324 320 321 323 323 324 327 325 329 328 317 303 310 211 152 150 331 289 272 290 21 0 23 56 334 39 76 123 128 115 98 91 108 112 106 103 96 86
291 301 309 316 315 322 326 329 322 321 320 318 316 317 318 318 316 316 313 273 237 153 136 140 96 9 333 293 343 12 1 18 33 337 46 76 83 104 96 84 116 136 123 122 105 93 86
295 305 311 311 305 326 308 320 321 323 324 323 316 315 315 314 311 309 304 252 202 171 148 148 19 4 12 80 27 21 7 358 46 25 138 81 50 124 128 98 98 120 105 73 67 161 62
291 285 307 326 297 308 311 322 329 325 330 323 320 316 313 309 307 302 289 239 200 185 179 187 345 336 261 35 31 5 4 359 4 59 120 60 27 102 76 121 65 91 55 100 29 355 19
323 269 284 302 319 304 299 317 323 332 328 326 322 314 311 305 303 302 290 236 216 200 193 221 297 341 282 354 356 2 18 24 53 60 95 60 94 85 94 84 51 19 134 111 41 5 101
311 297 274 288 300 300 298 316 312 317 320 327 324 315 311 302 302 307 290 226 215 184 206 241 272 321 348 356 353 0 28 4 1 56 99 61 66 65 42 74 175 161 118 57 90 354 74
275 292 298 267 279 287 301 289 307 311 318 326 322 317 314 302 299 333 71 121 131 237 246 229 172 258 252 299 299 354 5 25 46 65 76 27 67 80 54 64 114 103 95 101 80 163 72
278 276 280 290 287 282 290 302 275 296 306 316 318 312 313 298 279 109 79 82 56 347 311 245 246 250 211 335 317 328 2 59 49 81 48 41 71 21 100 75 101 102 108 99 45 97 81
288 289 280 273 280 285 289 291 298 284 296 314 321 311 311 288 228 147 106 96 31 332 275 279 229 224 208 202 232 339 9 41 79 73 63 109 135 74 81 69 102 54 125 136 136 110 46
281 287 288 280 270 272 277 284 285 291 287 309 321 315 310 263 161 154 142 144 27 10 52 264 193 219 188 168 235 200 91 101 58 127 96 82 325 102 83 77 83 80 126 107 111 123 155
278 270 272 272 272 277 272 278 282 283 279 300 320 320 300 183 166 167 201 185 77 94 24 234 159 161 174 166 138 139 136 89 124 139 93 229 100 93 89 133 105 162 130 101 104 88 92
288 283 273 264 270 273 267 270 280 276 275 289 310 315 291 221 188 182 187 175 126 46 260 195 144 157 125 180 173 130 142 98 100 69 51 103 134 92 148 83 79 114 70 40 53 79 39
300 285 281 274 260 253 301 261 270 271 276 286 300 298 286 229 178 195 186 163 51 133 298 192 178 147 154 172 174 139 141 117 139 110 94 33 22 5 89 80 48 70 78 35 15 13 217
294 289 291 276 283 273 272 255 253 265 263 275 291 301 284 237 191 193 182 68 104 230 214 133 122 111 172 162 220 139 122 147 102 98 118 135 277 181 113 138 159 99 147 155 184 186 219
292 287 295 292 277 278 275 274 244 252 256 268 279 297 290 227 192 188 181 99 206 210 209 166 69 125 224 213 160 153 165 171 175 155 122 126 356 42 96 94 101 160 67 171 103 25 77
300 293 287 291 296 273 272 266 267 248 253 259 273 297 284 202 185 181 118 227 238 229 346 342 164 175 186 190 155 145 182 198 162 144 130 183 108 212 143 85 44 130 139 66 5 130 226
296 299 288 289 285 286 276 267 251 253 250 247 253 293 155 173 177 187 178 224 251 266 243 215 228 179 187 174 166 173 201 11 151 146 123 130 102 241 101 193 173 128 111 57 107 126 157
290 289 292 294 280 275 273 267 271 246 256 240 201 267 241 178 157 193 199 205 237 289 224 256 233 237 176 166 149 171 184 213 172 145 152 174 126 144 193 318 184 165 163 141 125 245 102
285 280 284 286 281 276 270 265 271 228 201 188 196 244 221 174 163 238 262 267 268 307 360 13 292 320 108 161 151 133 144 339 156 138 163 183 128 94 1 350 325 193 177 128 118 101 199
283 276 279 276 281 274 271 260 261 264 239 207 180 213 198 206 211 155 178 240 219 236 259 263 278 316 314 121 44 148 125 54 120 122 136 109 136 157 182 196 153 190 168 163 135 136 172
281 279 272 272 272 276 262 258 250 264 249 229 204 222 189 200 196 171 196 238 190 211 210 196 237 219 242 100 85 122 109 122 49 136 83 114 154 159 182 172 160 187 177 178 184 181 167
281 274 271 269 265 268 268 252 246 253 262 240 250 201 217 205 175 192 205 226 211 205 203 206 209 180 287 210 193 190 143 173 179 156 114 8 157 92 319 303 107 228 195 195 207 189 242
276 274 269 269 260 260 264 256 246 241 261 257 251 263 270 202 169 188 210 217 218 189 259 244 212 222 138 248 248 258 178 183 169 146 141 131 132 105 241 321 83 312 218 204 208 206 195
275 271 267 265 263 256 253 254 243 238 245 261 245 293 308 240 195 197 203 207 225 212 217 230 228 181 241 168 125 100 81 101 92 69 136 134 112 94 173 36 234 239 208 218 211 212 217
273 269 264 260 262 254 253 247 246 241 241 252 257 254 251 294 345 211 201 192 221 235 241 246 241 190 246 202 76 56 355 31 328 158 135 147 122 94 143 207 292 254 206 172 173 239 211
272 269 267 261 259 257 252 247 246 240 231 241 252 244 228 274 233 327 226 214 218 193 237 244 250 253 251 103 114 153 179 170 207 121 80 72 76 111 110 151 211 248 317 155 102 285 200
270 268 268 265 259 259 258 248 239 237 232 229 241 244 236 220 262 278 273 263 218 200 196 212 212 199 218 150 115 148 199 177 163 165 159 124 41 149 143 228 285 247 247 140 114 239 204
271 269 267 265 262 259 257 257 244 234 230 222 236 244 239 254 250 256 263 282 326 227 172 221 163 215 129 178 159 194 141 200 135 165 171 161 150 175 102 95 265 222 127 176 229 187 186
272 273 271 266 262 260 257 255 250 236 233 218 226 241 243 235 257 270 265 267 263 268 289 289 282 234 194 129 219 126 128 134 144 194 159 183 180 179 179 205 236 240 241 258 252 208 181
Height
1537 1535 1533 1531 1530 1529 1528 1526 1525 1523 1522 1520 1518 1516 1514 1513 1511 1509 1508 1507 1508 1507 1507 1508 1508 1508 1507 1506 1506 1504 1502 1502 1501 1500 1500 1500 1499 1501 1503 1505 1507 1513 1517 1519 1522 1523 1528
1535 1533 1532 1530 1529 1528 1528 1526 1524 1523 1521 1519 1517 1515 1513 1512 1510 1509 1508 1507 1507 1506 1507 1508 1508 1507 1507 1507 1505 1504 1502 1502 1501 1500 1500 1500 1501 1502 1504 1506 1508 1512 1516 1520 1527 1528 1532
1532 1532 1530 1529 1529 1528 1528 1526 1523 1522 1520 1518 1516 1515 1512 1511 1509 1508 1507 1507 1507 1507 1507 1508 1509 1508 1507 1507 1504 1503 1503 1502 1500 1500 1501 1501 1502 1502 1504 1507 1510 1513 1520 1524 1531 1530 1532
1531 1531 1529 1528 1528 1528 1527 1525 1523 1521 1519 1517 1515 1514 1512 1510 1508 1507 1507 1506 1506 1507 1508 1508 1509 1508 1506 1504 1504 1504 1503 1501 1500 1500 1501 1502 1502 1503 1505 1508 1512 1517 1524 1535 1534 1531 1535
1531 1529 1528 1528 1527 1527 1525 1524 1523 1521 1518 1516 1514 1513 1511 1509 1507 1507 1506 1506 1506 1507 1508 1508 1508 1507 1505 1504 1504 1503 1502 1500 1500 1501 1502 1502 1502 1504 1506 1513 1522 1526 1537 1534 1535 1535 1533
1530 1529 1527 1526 1526 1526 1525 1524 1522 1520 1517 1515 1513 1511 1510 1508 1507 1506 1505 1505 1506 1507 1508 1508 1506 1508 1505 1505 1504 1503 1502 1502 1501 1501 1502 1502 1504 1509 1513 1518 1533 1528 1537 1541 1545 1551 1545
1526 1526 1526 1525 1524 1524 1523 1522 1521 1518 1516 1514 1512 1510 1508 1508 1507 1506 1506 1506 1510 1510 1508 1506 1506 1505 1504 1505 1505 1504 1502 1502 1503 1502 1506 1506 1514 1524 1517 1514 1516 1524 1532 1543 1552 1551 1555
1524 1523 1523 1523 1523 1522 1521 1520 1518 1517 1516 1513 1510 1508 1507 1507 1507 1507 1507 1507 1511 1513 1509 1504 1504 1504 1504 1504 1504 1503 1504 1504 1504 1508 1508 1516 1523 1518 1516 1516 1519 1527 1535 1547 1554 1554 1556
1522 1521 1521 1521 1520 1520 1519 1518 1517 1515 1514 1512 1510 1507 1506 1505 1506 1508 1508 1509 1510 1511 1510 1502 1501 1502 1503 1504 1505 1504 1504 1505 1506 1510 1513 1519 1520 1517 1518 1524 1527 1535 1538 1539 1548 1556 1559
1519 1519 1518 1518 1517 1516 1516 1516 1514 1513 1512 1511 1508 1506 1505 1505 1509 1507 1507 1508 1509 1510 1519 1503 1499 1499 1501 1502 1504 1505 1505 1507 1508 1516 1515 1520 1520 1522 1525 1529 1530 1539 1534 1537 1543 1551 1563
1515 1515 1515 1515 1514 1513 1512 1512 1511 1511 1510 1509 1508 1505 1504 1506 1506 1506 1508 1508 1509 1510 1552 1499 1498 1499 1499 1502 1503 1505 1506 1506 1510 1512 1516 1528 1525 1527 1530 1530 1530 1537 1535 1538 1542 1551 1558
1513 1512 1512 1511 1510 1509 1509 1509 1509 1508 1508 1508 1507 1504 1503 1504 1505 1506 1507 1509 1510 1532 1542 1499 1496 1498 1501 1501 1502 1503 1505 1506 1510 1514 1517 1523 1523 1525 1527 1529 1530 1533 1539 1545 1549 1555 1579
1510 1508 1507 1507 1506 1506 1505 1506 1506 1506 1506 1505 1504 1503 1502 1503 1504 1506 1507 1509 1530 1545 1500 1498 1497 1497 1500 1503 1502 1502 1504 1508 1514 1526 1528 1527 1527 1526 1525 1531 1532 1538 1546 1569 1569 1583 1576
1508 1506 1504 1503 1502 1502 1502 1502 1503 1503 1503 1503 1502 1501 1500 1500 1503 1504 1507 1511 1542 1508 1498 1488 1492 1497 1501 1501 1502 1502 1505 1511 1509 1513 1527 1537 1540 1528 1526 1530 1537 1540 1545 1558 1553 1568 1561
1505 1503 1502 1499 1498 1498 1499 1499 1499 1500 1501 1500 1499 1499 1497 1498 1501 1503 1507 1531 1514 1501 1489 1488 1492 1499 1502 1499 1500 1502 1505 1509 1507 1507 1523 1531 1535 1527 1527 1528 1532 1539 1555 1547 1556 1563 1566
1501 1501 1499 1497 1496 1495 1496 1496 1496 1497 1498 1498 1497 1496 1493 1496 1499 1503 1507 1505 1499 1491 1488 1487 1492 1494 1501 1499 1500 1503 1508 1503 1505 1506 1509 1522 1535 1529 1529 1530 1534 1536 1543 1559 1567 1587 1576
1498 1497 1496 1494 1493 1492 1493 1492 1493 1494 1495 1495 1497 1495 1492 1493 1498 1501 1510 1502 1493 1489 1488 1488 1487 1493 1491 1495 1499 1504 1506 1503 1502 1508 1509 1517 1530 1536 1532 1536 1541 1543 1548 1556 1559 1565 1573
1495 1494 1493 1491 1490 1490 1490 1489 1490 1491 1493 1494 1494 1495 1490 1492 1498 1499 1500 1494 1489 1487 1486 1486 1485 1485 1488 1492 1496 1499 1503 1501 1501 1504 1512 1513 1528 1546 1534 1532 1530 1534 1541 1548 1578 1583 1582
1491 1490 1489 1488 1487 1487 1486 1486 1486 1488 1490 1489 1490 1490 1488 1490 1501 1502 1494 1490 1489 1488 1487 1487 1484 1482 1482 1488 1496 1496 1498 1500 1501 1504 1510 1512 1532 1548 1542 1540 1532 1532 1536 1541 1551 1562 1576
1486 1485 1484 1485 1484 1483 1483 1483 1483 1484 1485 1486 1488 1490 1487 1487 1487 1488 1491 1490 1489 1487 1487 1487 1486 1483 1482 1484 1491 1499 1501 1502 1503 1504 1506 1509 1522 1526 1534 1526 1528 1530 1530 1536 1540 1559 1556
1482 1481 1480 1480 1480 1480 1480 1480 1480 1481 1481 1483 1482 1480 1479 1484 1481 1485 1488 1484 1485 1486 1485 1484 1485 1484 1484 1494 1493 1498 1500 1503 1505 1506 1507 1510 1519 1519 1518 1516 1519 1521 1525 1531 1534 1535 1539
1476 1476 1476 1476 1476 1476 1476 1477 1478 1478 1477 1480 1478 1477 1477 1476 1476 1481 1483 1482 1482 1483 1482 1482 1484 1482 1484 1486 1488 1496 1495 1498 1499 1506 1508 1512 1525 1522 1536 1518 1518 1518 1521 1524 1524 1526 1527
1471 1471 1471 1471 1471 1472 1473 1473 1474 1476 1476 1476 1477 1475 1474 1471 1474 1477 1475 1475 1477 1479 1479 1479 1480 1482 1484 1484 1483 1482 1485 1486 1487 1497 1508 1513 1523 1531 1537 1523 1521 1531 1512 1513 1515 1514 1516
1466 1466 1466 1466 1467 1468 1469 1470 1471 1473 1473 1474 1475 1476 1476 1466 1468 1468 1470 1473 1474 1475 1478 1476 1478 1481 1481 1480 1481 1485 1488 1489 1492 1495 1497 1511 1519 1533 1548 1530 1554 1502 1496 1498 1502 1504 1506
1460 1460 1461 1462 1462 1463 1464 1465 1467 1469 1471 1471 1473 1475 1475 1473 1467 1465 1467 1468 1471 1473 1475 1476 1475 1478 1480 1481 1488 1500 1507 1502 1504 1498 1499 1500 1515 1541 1544 1546 1511 1492 1489 1494 1498 1494 1492
1454 1454 1454 1455 1456 1457 1459 1460 1462 1465 1467 1468 1469 1470 1473 1473 1468 1466 1464 1465 1467 1471 1473 1470 1473 1476 1479 1479 1487 1504 1510 1501 1504 1500 1502 1505 1507 1524 1546 1549 1530 1489 1482 1482 1488 1499 1477
1447 1448 1448 1449 1450 1452 1453 1455 1457 1460 1463 1465 1466 1468 1470 1469 1466 1467 1465 1463 1464 1465 1468 1468 1467 1471 1475 1483 1501 1499 1493 1484 1494 1496 1505 1512 1522 1530 1555 1543 1508 1485 1483 1484 1506 1489 1470
1440 1441 1442 1442 1443 1445 1447 1448 1451 1454 1457 1460 1462 1463 1467 1466 1464 1464 1464 1464 1462 1462 1465 1464 1467 1465 1471 1478 1482 1484 1486 1483 1484 1485 1489 1496 1514 1530 1532 1547 1516 1478 1483 1486 1477 1470 1470
1433 1434 1434 1435 1437 1438 1440 1442 1444 1447 1451 1455 1457 1459 1462 1464 1462 1460 1460 1462 1464 1466 1468 1462 1460 1459 1458 1467 1472 1471 1476 1481 1478 1491 1482 1491 1486 1494 1496 1493 1476 1476 1475 1475 1474 1472 1471